| time (UTC) | temp C | wind direction | speed KPH | gust KPH | rain 1hr cm | rain 24hr cm | rain mn cm | humidity % | barometer mb |
| 20260504081523 | 9 | 267 | 1.6 | 6.4 | 0.00 | 0.00 | 0.00 | 68 | 1015.4 |
| 20260504060120 | 9 | 267 | 0.0 | 3.2 | 0.00 | 0.00 | 0.00 | 70 | 1015.4 |
| 20260504044605 | 10 | 267 | 0.0 | 3.2 | 0.00 | 0.00 | 0.00 | 66 | 1015.3 |
| 20260504043001 | 10 | 267 | 0.0 | 3.2 | 0.00 | 0.00 | 0.00 | 66 | 1015.2 |
| 20260504041609 | 10 | 267 | 0.0 | 3.2 | 0.00 | 0.00 | 0.00 | 65 | 1015.1 |
| 20260504040109 | 10 | 267 | 0.0 | 3.2 | 0.00 | 0.00 | 0.00 | 65 | 1015.0 |
| 20260504034508 | 10 | 267 | 0.0 | 3.2 | 0.00 | 0.00 | 0.00 | 65 | 1014.7 |
| 20260504033016 | 10 | 267 | 0.0 | 6.4 | 0.00 | 0.00 | 0.00 | 64 | 1014.7 |
| 20260504031529 | 11 | 267 | 0.0 | 3.2 | 0.00 | 0.00 | 0.00 | 63 | 1014.7 |
| 20260504030026 | 11 | 267 | 0.0 | 3.2 | 0.00 | 0.00 | 0.00 | 63 | 1014.6 |
| 20260504024514 | 11 | 267 | 0.0 | 3.2 | 0.00 | 0.00 | 0.00 | 62 | 1014.5 |
| 20260504023021 | 10 | 267 | 0.0 | 3.2 | 0.00 | 0.00 | 0.00 | 64 | 1014.7 |
| 20260504021600 | 11 | 267 | 0.0 | 3.2 | 0.00 | 0.00 | 0.00 | 66 | 1014.6 |
| 20260504020003 | 10 | 267 | 0.0 | 1.6 | 0.00 | 0.00 | 0.00 | 64 | 1014.6 |
| 20260504014529 | 11 | 267 | 0.0 | 3.2 | 0.00 | 0.00 | 0.00 | 65 | 1014.6 |
| 20260504013114 | 11 | 293 | 0.0 | 3.2 | 0.00 | 0.00 | 0.00 | 64 | 1014.5 |
| 20260504011514 | 11 | 293 | 0.0 | 3.2 | 0.00 | 0.00 | 0.00 | 62 | 1014.4 |
| 20260504010116 | 11 | 293 | 0.0 | 3.2 | 0.00 | 0.00 | 0.00 | 62 | 1014.3 |
| 20260504004604 | 12 | 293 | 0.0 | 3.2 | 0.00 | 0.00 | 0.00 | 60 | 1014.1 |
| 20260504003010 | 12 | 293 | 0.0 | 3.2 | 0.00 | 0.00 | 0.00 | 60 | 1013.9 |
| 20260504001509 | 12 | 293 | 0.0 | 3.2 | 0.00 | 0.00 | 0.00 | 60 | 1013.7 |
| 20260504000112 | 12 | 293 | 0.0 | 6.4 | 0.00 | 0.00 | 0.00 | 58 | 1013.6 |
| 20260503234518 | 13 | 293 | 0.0 | 3.2 | 0.00 | 0.00 | 0.00 | 59 | 1013.3 |
| 20260503233104 | 13 | 293 | 0.0 | 3.2 | 0.00 | 0.00 | 0.00 | 56 | 1013.2 |
| 20260503231511 | 13 | 293 | 0.0 | 8.0 | 0.00 | 0.00 | 0.00 | 55 | 1013.2 |
| 20260503230016 | 13 | 277 | 1.6 | 12.9 | 0.00 | 0.00 | 0.00 | 55 | 1013.1 |
| 20260503224601 | 13 | 288 | 1.6 | 8.0 | 0.00 | 0.00 | 0.00 | 54 | 1013.0 |
| 20260503223113 | 14 | 284 | 0.0 | 16.1 | 0.00 | 0.00 | 0.00 | 53 | 1013.0 |
| 20260503221504 | 14 | 292 | 0.0 | 8.0 | 0.00 | 0.00 | 0.00 | 51 | 1012.9 |
| 20260503220021 | 14 | 289 | 0.0 | 8.0 | 0.00 | 0.00 | 0.00 | 53 | 1013.0 |
| 20260503214523 | 14 | 286 | 1.6 | 8.0 | 0.00 | 0.00 | 0.00 | 52 | 1012.9 |
| 20260503213108 | 15 | 69 | 0.0 | 9.7 | 0.00 | 0.00 | 0.00 | 50 | 1012.8 |
| 20260503211617 | 15 | 286 | 1.6 | 8.0 | 0.00 | 0.00 | 0.00 | 51 | 1012.7 |
| 20260503210030 | 15 | 77 | 3.2 | 8.0 | 0.00 | 0.00 | 0.00 | 51 | 1012.8 |
| 20260503204510 | 14 | 267 | 1.6 | 11.3 | 0.00 | 0.00 | 0.00 | 50 | 1012.8 |
| 20260503203029 | 14 | 316 | 0.0 | 16.1 | 0.00 | 0.00 | 0.00 | 50 | 1013.1 |
| 20260503201534 | 13 | 324 | 0.0 | 6.4 | 0.00 | 0.00 | 0.00 | 51 | 1013.2 |
| 20260503200038 | 14 | 302 | 1.6 | 11.3 | 0.00 | 0.00 | 0.00 | 53 | 1013.3 |
| 20260503194626 | 13 | 94 | 1.6 | 11.3 | 0.00 | 0.00 | 0.00 | 51 | 1013.4 |
| 20260503193021 | 13 | 297 | 1.6 | 9.7 | 0.00 | 0.00 | 0.00 | 53 | 1013.7 |
| 20260503191506 | 13 | 188 | 3.2 | 8.0 | 0.00 | 0.00 | 0.00 | 53 | 1013.8 |
| 20260503190019 | 12 | 75 | 1.6 | 11.3 | 0.00 | 0.00 | 0.00 | 54 | 1013.9 |
| 20260503184601 | 12 | 271 | 3.2 | 14.5 | 0.00 | 0.00 | 0.00 | 52 | 1014.0 |
| 20260503183108 | 12 | 232 | 0.0 | 12.9 | 0.00 | 0.00 | 0.00 | 55 | 1014.1 |
| 20260503181618 | 12 | 290 | 8.0 | 19.3 | 0.00 | 0.00 | 0.00 | 55 | 1014.1 |
| 20260503180018 | 12 | 277 | 4.8 | 17.7 | 0.00 | 0.00 | 0.00 | 55 | 1014.2 |
| 20260503174558 | 12 | 263 | 1.6 | 9.7 | 0.00 | 0.00 | 0.00 | 55 | 1014.4 |
| 20260503173212 | 11 | 281 | 0.0 | 19.3 | 0.00 | 0.00 | 0.00 | 56 | 1014.5 |
| 20260503171646 | 11 | 309 | 3.2 | 9.7 | 0.00 | 0.00 | 0.00 | 55 | 1014.5 |
| 20260503150105 | 8 | 296 | 0.0 | 3.2 | 0.00 | 0.00 | 0.00 | 65 | 1015.4 |
| 20260503120116 | 6 | 284 | 0.0 | 3.2 | 0.00 | 0.00 | 0.00 | 73 | 1015.2 |